Terminal Aerodrome Forecast
Issued by NWS

Home | Current Version | Previous Version | Text Only | Print | Product List | Glossary On
Versions: 1 2 3 4 5 6 7 8 9 10 11 12 13 14 15 16 17
139
FTUS43 KGRR 220716 AAB
TAFJXN
TAF AMD
KJXN 220716Z 2207/2306 23003KT 1/4SM FG OVC003
     FM221400 23012G24KT P6SM SCT035
     FM230000 20008KT P6SM SCT090=

USA.gov is the U.S. government's official web portal to all federal, state and local government web resources and services.